When you browse on this site, cookies collect data to enhance your experience and personalize the content and advertising you see.
Visit our Privacy Policy to learn more. By continuing to use the site, you agree to this use of cookies and data.
  • In Spain
  • List of Countries
  • For 7 days
  • Water Temperature
  • Satellite Maps
  • Weather Map
  • Weather Widgets
  • user-avatar
    Login

    Hourly Weather La-Plata

    Today, 19 July, Friday

    Time Temperature Precipitation Wind Pressure Humidity
    00:00 +13°C° 0 mm 2 mps 764 mmHg 90%
    01:00 +13°C° 0 mm 2 mps 764 mmHg 89%
    02:00 +13°C° 0 mm 2 mps 764 mmHg 85%
    03:00 +12°C° 0 mm 2 mps 763 mmHg 86%
    04:00 +12°C° 0 mm 1 mps 763 mmHg 87%
    05:00 +12°C° 0 mm 1 mps 763 mmHg 87%
    06:00 +12°C° 0 mm 1 mps 763 mmHg 87%
    07:00 +12°C° 0 mm 1 mps 763 mmHg 87%
    08:00 +12°C° 0 mm 2 mps 763 mmHg 87%
    09:00 +14°C° 0 mm 2 mps 763 mmHg 82%
    10:00 +15°C° 0 mm 2 mps 763 mmHg 76%
    11:00 +17°C° 0 mm 2 mps 762 mmHg 71%
    12:00 +17°C° 0 mm 2 mps 762 mmHg 69%
    13:00 +18°C° 0 mm 2 mps 761 mmHg 66%
    14:00 +18°C° 0 mm 2 mps 760 mmHg 64%
    15:00 +17°C° 0 mm 2 mps 760 mmHg 71%
    16:00 +16°C° 0 mm 2 mps 760 mmHg 78%
    17:00 +15°C° 0 mm 2 mps 759 mmHg 85%
    18:00 +15°C° 0 mm 2 mps 759 mmHg 87%
    19:00 +14°C° 0 mm 3 mps 759 mmHg 88%
    20:00 +14°C° 0 mm 3 mps 759 mmHg 90%
    21:00 +15°C° 0 mm 2 mps 759 mmHg 91%
    22:00 +15°C° 0 mm 2 mps 760 mmHg 91%
    23:00 +15°C° 0 mm 1 mps 760 mmHg 92%

    Tomorrow, 20 July, Saturday

    Time Temperature Precipitation Wind Pressure Humidity
    00:00 +15°C° 0.1 mm 2 mps 760 mmHg 92%
    01:00 +15°C° 0.1 mm 2 mps 760 mmHg 91%
    02:00 +15°C° 0.1 mm 2 mps 759 mmHg 91%
    03:00 +15°C° 0 mm 2 mps 759 mmHg 91%
    04:00 +15°C° 0 mm 2 mps 759 mmHg 91%
    05:00 +15°C° 0 mm 2 mps 759 mmHg 91%
    06:00 +15°C° 0 mm 2 mps 759 mmHg 92%
    07:00 +15°C° 0 mm 2 mps 759 mmHg 94%
    08:00 +15°C° 0 mm 2 mps 759 mmHg 96%
    09:00 +15°C° 0 mm 2 mps 759 mmHg 93%
    10:00 +16°C° 0 mm 3 mps 759 mmHg 90%
    11:00 +16°C° 0 mm 3 mps 758 mmHg 87%
    12:00 +17°C° 0.1 mm 3 mps 757 mmHg 88%
    13:00 +17°C° 0.1 mm 4 mps 756 mmHg 89%
    14:00 +17°C° 0.1 mm 4 mps 756 mmHg 90%
    15:00 +17°C° 0.1 mm 4 mps 755 mmHg 92%
    16:00 +16°C° 0.1 mm 5 mps 755 mmHg 93%
    17:00 +16°C° 0.1 mm 5 mps 754 mmHg 95%
    18:00 +17°C° 0 mm 5 mps 753 mmHg 94%
    19:00 +17°C° 0 mm 6 mps 753 mmHg 93%
    20:00 +17°C° 0 mm 6 mps 752 mmHg 92%
    21:00 +18°C° 0 mm 7 mps 752 mmHg 90%
    22:00 +18°C° 0 mm 7 mps 752 mmHg 88%
    23:00 +18°C° 0 mm 7 mps 752 mmHg 86%

    Day after tomorrow, 21 July, Sunday

    Time Temperature Precipitation Wind Pressure Humidity
    00:00 +18°C° 0 mm 7 mps 752 mmHg 85%
    01:00 +18°C° 0 mm 7 mps 751 mmHg 84%
    02:00 +18°C° 0 mm 8 mps 751 mmHg 83%
    03:00 +20°C° 0.1 mm 8 mps 750 mmHg 83%
    04:00 +20°C° 0.1 mm 7 mps 750 mmHg 83%
    05:00 +20°C° 0.1 mm 7 mps 750 mmHg 83%
    06:00 +20°C° 0.5 mm 7 mps 750 mmHg 83%
    07:00 +20°C° 0.5 mm 7 mps 750 mmHg 83%
    08:00 +20°C° 0.5 mm 7 mps 750 mmHg 84%
    09:00 +20°C° 0.7 mm 8 mps 750 mmHg 81%
    10:00 +21°C° 0.7 mm 8 mps 750 mmHg 79%
    11:00 +22°C° 0.7 mm 9 mps 750 mmHg 77%
    12:00 +22°C° 0.8 mm 8 mps 750 mmHg 77%
    13:00 +22°C° 0.8 mm 7 mps 750 mmHg 77%
    14:00 +22°C° 0.8 mm 6 mps 750 mmHg 78%
    15:00 +18°C° 1 mm 7 mps 751 mmHg 78%
    16:00 +13°C° 1 mm 8 mps 752 mmHg 77%
    17:00 +10°C° 1 mm 9 mps 753 mmHg 77%
    18:00 +10°C° 0.7 mm 7 mps 755 mmHg 77%
    19:00 +10°C° 0.7 mm 6 mps 756 mmHg 77%
    20:00 +9°C° 0.7 mm 5 mps 757 mmHg 76%
    21:00 +10°C° 0.1 mm 4 mps 758 mmHg 77%
    22:00 +11°C° 0.1 mm 3 mps 759 mmHg 77%
    23:00 +12°C° 0.1 mm 2 mps 760 mmHg 78%

    22 July, Monday

    Time Temperature Precipitation Wind Pressure Humidity
    00:00 +10°C° 0 mm 2 mps 760 mmHg 77%
    01:00 +10°C° 0 mm 2 mps 760 mmHg 77%
    02:00 +10°C° 0 mm 2 mps 760 mmHg 77%
    03:00 +11°C° 0 mm 1 mps 760 mmHg 74%
    04:00 +11°C° 0 mm 1 mps 760 mmHg 71%
    05:00 +11°C° 0 mm 1 mps 761 mmHg 68%
    06:00 +11°C° 0 mm 1 mps 761 mmHg 67%
    07:00 +11°C° 0 mm 1 mps 762 mmHg 67%
    08:00 +10°C° 0 mm 2 mps 762 mmHg 66%
    09:00 +10°C° 0 mm 3 mps 763 mmHg 65%
    10:00 +10°C° 0 mm 3 mps 763 mmHg 63%
    11:00 +10°C° 0 mm 4 mps 764 mmHg 62%
    12:00 +11°C° 0 mm 4 mps 764 mmHg 58%
    13:00 +11°C° 0 mm 4 mps 763 mmHg 55%
    14:00 +12°C° 0 mm 3 mps 763 mmHg 51%
    15:00 +11°C° 0 mm 3 mps 763 mmHg 56%
    16:00 +10°C° 0 mm 2 mps 764 mmHg 60%
    17:00 +9°C° 0 mm 2 mps 764 mmHg 65%
    18:00 +9°C° 0 mm 2 mps 765 mmHg 65%
    19:00 +8°C° 0 mm 3 mps 765 mmHg 65%
    20:00 +8°C° 0 mm 3 mps 765 mmHg 65%
    21:00 +7°C° 0 mm 3 mps 766 mmHg 66%
    22:00 +7°C° 0 mm 3 mps 766 mmHg 67%
    23:00 +7°C° 0 mm 3 mps 766 mmHg 69%

    23 July, Tuesday

    Time Temperature Precipitation Wind Pressure Humidity
    00:00 +7°C° 0 mm 3 mps 766 mmHg 68%
    01:00 +7°C° 0 mm 3 mps 766 mmHg 67%
    02:00 +7°C° 0 mm 3 mps 766 mmHg 66%
    03:00 +5°C° 0 mm 3 mps 766 mmHg 68%
    04:00 +5°C° 0 mm 3 mps 767 mmHg 69%
    05:00 +5°C° 0 mm 3 mps 767 mmHg 71%
    06:00 +5°C° 0 mm 3 mps 767 mmHg 69%
    07:00 +5°C° 0 mm 3 mps 767 mmHg 68%
    08:00 +5°C° 0 mm 3 mps 768 mmHg 66%
    09:00 +7°C° 0 mm 3 mps 768 mmHg 63%
    10:00 +8°C° 0 mm 3 mps 768 mmHg 59%
    11:00 +9°C° 0 mm 3 mps 768 mmHg 56%
    12:00 +10°C° 0 mm 3 mps 768 mmHg 53%
    13:00 +10°C° 0 mm 3 mps 768 mmHg 50%
    14:00 +11°C° 0 mm 3 mps 767 mmHg 48%
    15:00 +10°C° 0 mm 3 mps 767 mmHg 51%
    16:00 +9°C° 0 mm 3 mps 768 mmHg 55%
    17:00 +9°C° 0 mm 2 mps 768 mmHg 58%
    18:00 +8°C° 0 mm 2 mps 768 mmHg 60%
    19:00 +7°C° 0 mm 2 mps 769 mmHg 62%
    20:00 +6°C° 0 mm 2 mps 769 mmHg 65%
    21:00 +6°C° 0 mm 2 mps 769 mmHg 65%
    22:00 +5°C° 0 mm 2 mps 770 mmHg 65%
    23:00 +5°C° 0 mm 2 mps 770 mmHg 65%

    24 July, Wednesday

    Time Temperature Precipitation Wind Pressure Humidity
    00:00 +5°C° 0 mm 2 mps 770 mmHg 65%
    01:00 +4°C° 0 mm 2 mps 770 mmHg 65%
    02:00 +4°C° 0 mm 2 mps 770 mmHg 65%
    03:00 +3°C° 0 mm 3 mps 771 mmHg 66%
    04:00 +3°C° 0 mm 3 mps 771 mmHg 68%
    05:00 +2°C° 0 mm 3 mps 771 mmHg 69%
    06:00 +2°C° 0 mm 3 mps 771 mmHg 70%
    07:00 +3°C° 0 mm 3 mps 771 mmHg 71%
    08:00 +3°C° 0 mm 3 mps 771 mmHg 72%
    09:00 +5°C° 0 mm 3 mps 772 mmHg 68%
    10:00 +7°C° 0 mm 3 mps 772 mmHg 65%
    11:00 +8°C° 0 mm 4 mps 772 mmHg 61%
    12:00 +10°C° 0 mm 4 mps 772 mmHg 62%
    13:00 +10°C° 0 mm 4 mps 772 mmHg 63%
    14:00 +11°C° 0 mm 4 mps 772 mmHg 65%
    15:00 +10°C° 0 mm 4 mps 772 mmHg 68%
    16:00 +10°C° 0 mm 4 mps 772 mmHg 72%
    17:00 +8°C° 0 mm 4 mps 773 mmHg 76%
    18:00 +7°C° 0 mm 4 mps 773 mmHg 79%
    19:00 +6°C° 0 mm 4 mps 773 mmHg 82%
    20:00 +4°C° 0 mm 4 mps 773 mmHg 86%
    21:00 +4°C° 0 mm 4 mps 773 mmHg 85%
    22:00 +4°C° 0 mm 4 mps 773 mmHg 84%
    23:00 +4°C° 0 mm 4 mps 773 mmHg 83%
    Show more